Kathy C — 2CTI7 — position and weather

sailwx.info

Track history (hours):
 
Tides and Currents Weather Stations Pressure Air Temp Water Temp Dewpoint Dewpoint Depression Visibility Wind Speed Wind Dir Waves Ship Positions

Kathy C

Last reported at 2014-Oct-23 09:33 UTC. Time now 2014-Oct-23 10:07 UTC.
Position N 50°36' E 000°20'.

Length 106 m; draft 6 m.

Type: Cargo ship. MMSI: 235075591.

Date/timePositionNaut miles runAvg speedWind from/ knotsBaromVisibWave heightAir tempDewpointWater temp
2014-Oct-23 09:33N 50°36' E 000°20'7 7.3
2014-Oct-23 08:33N 50°38' E 000°31'8 7.6
2014-Oct-23 07:33N 50°42' E 000°41'9 9.1
2014-Oct-23 06:34N 50°47' E 000°53'2310.8
2014-Oct-23 04:24N 51°02' E 001°22'810.1
2014-Oct-23 03:33N 51°07' E 001°33'8 8.4
2014-Oct-23 02:33N 51°12' E 001°43'8 7.7
2014-Oct-23 01:34N 51°19' E 001°49'7 7.5
2014-Oct-23 00:34N 51°26' E 001°52'8 8.2
2014-Oct-22 23:34N 51°34' E 001°49'10 9.5
2014-Oct-22 22:33N 51°43' E 001°45'9 9.3
2014-Oct-22 21:33N 51°51' E 001°37'8 8.0
2014-Oct-22 20:34N 51°56' E 001°26'8 7.7
2014-Oct-22 19:33N 51°60' E 001°15'4 4.4
2014-Oct-22 18:33N 52°02' E 001°10'0 0.0
2014-Oct-22 17:33N 52°02' E 001°10'0 0.0
2014-Oct-22 16:33N 52°02' E 001°10'0 0.0
2014-Oct-22 15:33N 52°02' E 001°10'0 0.0
2014-Oct-22 14:33N 52°02' E 001°10'0 0.0
2014-Oct-22 13:33N 52°02' E 001°10'0 0.0
2014-Oct-22 12:33N 52°02' E 001°10'0 0.0
2014-Oct-22 11:33N 52°02' E 001°10'0 0.0
2014-Oct-22 10:30N 52°02' E 001°10'0 0.0
2014-Oct-22 09:33N 52°02' E 001°10'0 0.0
2014-Oct-22 08:33N 52°02' E 001°10'0 0.0
2014-Oct-22 07:33N 52°02' E 001°10'0 0.0
2014-Oct-22 06:33N 52°02' E 001°10'0 0.0
2014-Oct-22 05:33N 52°02' E 001°10'0 0.0
2014-Oct-22 04:33N 52°02' E 001°10'0 0.0
2014-Oct-22 03:33N 52°02' E 001°10'0 0.0
2014-Oct-22 02:30N 52°02' E 001°10'0 0.0
2014-Oct-22 01:30N 52°02' E 001°10'0 0.0
2014-Oct-22 00:30N 52°02' E 001°10'0 0.0
2014-Oct-21 23:33N 52°02' E 001°10'0 0.0
2014-Oct-21 22:33N 52°02' E 001°10'0 0.0
2014-Oct-21 21:33N 52°02' E 001°10'0 0.0
2014-Oct-21 20:33N 52°02' E 001°10'0 0.0
2014-Oct-21 19:33N 52°02' E 001°10'0 0.0
2014-Oct-21 18:33N 52°02' E 001°10'0 0.0
2014-Oct-21 17:33N 52°02' E 001°10'0 0.0
2014-Oct-21 16:33N 52°02' E 001°10'0 0.0
2014-Oct-21 15:33N 52°02' E 001°10'0 0.0
2014-Oct-21 14:30N 52°02' E 001°10'0 0.0
2014-Oct-21 13:33N 52°02' E 001°10'0 0.0
2014-Oct-21 12:33N 52°02' E 001°10'0 0.0
2014-Oct-21 11:33N 52°02' E 001°10'0 0.0
2014-Oct-21 10:30N 52°02' E 001°10'0 0.0
2014-Oct-21 09:33N 52°02' E 001°10'0 0.0
2014-Oct-21 08:33N 52°02' E 001°10'0 0.0
2014-Oct-21 07:33N 52°02' E 001°10'0 0.0
2014-Oct-21 06:33N 52°02' E 001°10'0 0.0
2014-Oct-21 05:33N 52°02' E 001°10'0 0.0
2014-Oct-21 04:33N 52°02' E 001°10'0 0.0
2014-Oct-21 03:33N 52°02' E 001°10'0 0.0
2014-Oct-21 02:33N 52°02' E 001°10'0 0.0
2014-Oct-21 01:33N 52°02' E 001°10'0 0.0
2014-Oct-21 00:33N 52°02' E 001°10'0 0.0
2014-Oct-20 23:33N 52°02' E 001°10'0 0.0
2014-Oct-20 22:33N 52°02' E 001°10'0 0.0
2014-Oct-20 21:33N 52°02' E 001°10'0 0.0
2014-Oct-20 20:33N 52°02' E 001°10'0 0.0
2014-Oct-20 19:33N 52°02' E 001°10'0 0.0
2014-Oct-20 18:33N 52°02' E 001°10'0 0.0
2014-Oct-20 17:33N 52°02' E 001°10'0 0.0
2014-Oct-20 16:33N 52°02' E 001°10'0 0.0
2014-Oct-20 15:27N 52°02' E 001°10'0 0.0
2014-Oct-20 14:33N 52°02' E 001°10'0 0.0
2014-Oct-20 13:33N 52°02' E 001°10'0 0.0
2014-Oct-20 12:33N 52°02' E 001°10'0 0.0
2014-Oct-20 11:33N 52°02' E 001°10'0 0.0
2014-Oct-20 10:30N 52°02' E 001°10'0 0.0
2014-Oct-20 09:30N 52°02' E 001°10'0 0.0
2014-Oct-20 08:33N 52°02' E 001°10'0 0.0
2014-Oct-20 07:33N 52°02' E 001°10'0 0.0
2014-Oct-20 06:33N 52°02' E 001°10'0 0.0
2014-Oct-20 05:30N 52°02' E 001°10'0 0.0
2014-Oct-20 04:33N 52°02' E 001°10'0 0.0
2014-Oct-20 03:33N 52°02' E 001°10'0 0.0
2014-Oct-20 02:33N 52°02' E 001°10'0 0.0
2014-Oct-20 01:33N 52°02' E 001°10'0 0.0
2014-Oct-20 00:33N 52°02' E 001°10'0 0.0
2014-Oct-19 23:33N 52°02' E 001°10'0 0.0
2014-Oct-19 22:33N 52°02' E 001°10'0 0.0
2014-Oct-19 21:30N 52°02' E 001°10'0 0.0
2014-Oct-19 20:33N 52°02' E 001°10'0 0.0
2014-Oct-19 19:33N 52°02' E 001°10'0 0.0
2014-Oct-19 18:33N 52°02' E 001°10'0 0.0
2014-Oct-19 17:33N 52°02' E 001°10'0 0.0
2014-Oct-19 16:33N 52°02' E 001°10'0 0.0
2014-Oct-19 15:33N 52°02' E 001°10'0 0.0
2014-Oct-19 14:33N 52°02' E 001°10'0 0.0
2014-Oct-19 13:33N 52°02' E 001°10'0 0.0
2014-Oct-19 12:33N 52°02' E 001°10'0 0.0
2014-Oct-19 11:33N 52°02' E 001°10'0 0.0
2014-Oct-19 10:30N 52°02' E 001°10'0 0.0
2014-Oct-19 09:33N 52°02' E 001°10'0 0.0
2014-Oct-19 08:33N 52°02' E 001°10'0 0.0
2014-Oct-19 07:33N 52°02' E 001°10'0 0.0
2014-Oct-19 06:33N 52°02' E 001°10'0 0.0
2014-Oct-19 05:33N 52°02' E 001°10'0 0.0
2014-Oct-19 04:30N 52°02' E 001°10'0 0.0
2014-Oct-19 03:33N 52°02' E 001°10'0 0.0
2014-Oct-19 02:33N 52°02' E 001°10'0 0.0
2014-Oct-19 01:33N 52°02' E 001°10'0 0.0
2014-Oct-19 00:33N 52°02' E 001°10'0 0.0
2014-Oct-18 23:33N 52°02' E 001°10'0 0.0
2014-Oct-18 22:33N 52°02' E 001°10'0 0.0
2014-Oct-18 21:33N 52°02' E 001°10'0 0.0
2014-Oct-18 20:33N 52°02' E 001°10'0 0.0
2014-Oct-18 19:30N 52°02' E 001°10'0 0.0
2014-Oct-18 18:33N 52°02' E 001°10'0 0.0
2014-Oct-18 17:33N 52°02' E 001°10'0 0.1
2014-Oct-18 16:33N 52°02' E 001°09'4 4.1
2014-Oct-18 15:33N 51°60' E 001°15'8 7.9
2014-Oct-18 14:33N 51°56' E 001°26'9 8.6
2014-Oct-18 13:34N 52°02' E 001°37'3 3.1
2014-Oct-18 12:33N 52°04' E 001°40'1 0.9
2014-Oct-18 11:33N 52°05' E 001°42'2 2.4
2014-Oct-18 10:33N 52°07' E 001°41'9 8.7
2014-Oct-18 09:33N 52°15' E 001°45'9 8.9
2014-Oct-18 08:33N 52°24' E 001°51'9 8.8
2014-Oct-18 07:33N 52°32' E 001°54'9 9.3
2014-Oct-18 06:33N 52°41' E 001°55'1010.3
2014-Oct-18 05:33N 52°50' E 001°46'1111.5
2014-Oct-18 04:33N 52°58' E 001°32'1211.5
2014-Oct-18 03:33N 53°08' E 001°22'4310.7
2014-Oct-17 23:33N 53°32' E 000°24'10 9.8
2014-Oct-17 22:33N 53°33' E 000°07'1010.0
2014-Oct-17 21:33N 53°38' W 000°08'8 8.3
2014-Oct-17 20:33N 53°44' W 000°16'0 0.3
2014-Oct-17 19:30N 53°45' W 000°16'0 0.0
2014-Oct-17 18:24N 53°45' W 000°16'0 0.0
2014-Oct-17 17:30N 53°45' W 000°16'0 0.0
2014-Oct-17 16:30N 53°45' W 000°16'0 0.0
2014-Oct-17 15:18N 53°45' W 000°16'0 0.0
2014-Oct-17 14:24N 53°45' W 000°16'0 0.0
2014-Oct-17 13:09N 53°45' W 000°16'0 0.0
2014-Oct-17 12:27N 53°45' W 000°16'0 0.0
2014-Oct-17 11:27N 53°45' W 000°16'0 0.0
2014-Oct-17 10:15N 53°45' W 000°16'0 0.0
2014-Oct-17 09:33N 53°45' W 000°16'0 0.0
2014-Oct-17 08:30N 53°45' W 000°16'0 0.0
2014-Oct-17 07:27N 53°45' W 000°16'0 0.0
2014-Oct-17 06:33N 53°45' W 000°16'0 0.0
2014-Oct-17 05:33N 53°45' W 000°16'0 0.0
2014-Oct-17 04:30N 53°45' W 000°16'0 0.0
2014-Oct-17 03:30N 53°45' W 000°16'0 0.0
2014-Oct-17 02:18N 53°45' W 000°16'0 0.0
2014-Oct-17 01:30N 53°45' W 000°16'0 0.0
2014-Oct-17 00:30N 53°45' W 000°16'0 0.0
2014-Oct-16 23:30N 53°45' W 000°16'0 0.0
2014-Oct-16 22:30N 53°45' W 000°16'0 0.0
2014-Oct-16 21:30N 53°45' W 000°16'0 0.0
2014-Oct-16 20:33N 53°45' W 000°16'0 0.0
2014-Oct-16 19:33N 53°45' W 000°16'0 0.4
2014-Oct-16 18:34N 53°44' W 000°16'5 5.0
2014-Oct-16 17:33N 53°40' W 000°13'8 8.5
2014-Oct-16 16:34N 53°35' W 000°01'9 8.5
2014-Oct-16 15:34N 53°33' E 000°13'9 8.8
2014-Oct-16 14:32N 53°32' E 000°28'4 4.2
2014-Oct-16 13:31N 53°31' E 000°35'34 5.8
2014-Oct-16 07:33N 53°08' E 001°19'1110.7
2014-Oct-16 06:34N 52°60' E 001°30'1111.1
2014-Oct-16 05:33N 52°52' E 001°44'1110.4
2014-Oct-16 04:33N 52°46' E 001°58'10 9.2
2014-Oct-16 03:27N 52°37' E 002°02'8 8.7
2014-Oct-16 02:30N 52°28' E 001°59'12 8.3
2014-Oct-16 01:06N 52°17' E 001°55'5 8.3
2014-Oct-16 00:34N 52°13' E 001°53'9 8.8
2014-Oct-15 23:34N 52°04' E 001°51'10 9.7
2014-Oct-15 22:34N 51°54' E 001°48'10 9.9
2014-Oct-15 21:33N 51°45' E 001°49'1010.3
2014-Oct-15 20:34N 51°34' E 001°49'1010.4
2014-Oct-15 19:34N 51°24' E 001°45'1211.8
2014-Oct-15 18:34N 51°13' E 001°39'1010.1
2014-Oct-15 17:32N 51°03' E 001°36'4911.6
2014-Oct-15 13:19N 50°28' E 000°43'912.0
2014-Oct-15 12:34N 50°25' E 000°29'  
Track history (hours):
 
Tides and Currents Weather Stations Pressure Air Temp Water Temp Dewpoint Dewpoint Depression Visibility Wind Speed Wind Dir Waves Ship Positions

Kathy C

Last reported at 2014-Oct-23 09:33 UTC. Time now 2014-Oct-23 10:07 UTC.
Position N 50°36' E 000°20'.

Length 106 m; draft 6 m.

Type: Cargo ship. MMSI: 235075591.

Date/timePositionNaut miles runAvg speedWind from/ knotsBaromVisibWave heightAir tempDewpointWater temp
2014-Oct-23 09:33N 50°36' E 000°20'7 7.3
2014-Oct-23 08:33N 50°38' E 000°31'8 7.6
2014-Oct-23 07:33N 50°42' E 000°41'9 9.1
2014-Oct-23 06:34N 50°47' E 000°53'2310.8
2014-Oct-23 04:24N 51°02' E 001°22'810.1
2014-Oct-23 03:33N 51°07' E 001°33'8 8.4
2014-Oct-23 02:33N 51°12' E 001°43'8 7.7
2014-Oct-23 01:34N 51°19' E 001°49'7 7.5
2014-Oct-23 00:34N 51°26' E 001°52'8 8.2
2014-Oct-22 23:34N 51°34' E 001°49'10 9.5
2014-Oct-22 22:33N 51°43' E 001°45'9 9.3
2014-Oct-22 21:33N 51°51' E 001°37'8 8.0
2014-Oct-22 20:34N 51°56' E 001°26'8 7.7
2014-Oct-22 19:33N 51°60' E 001°15'4 4.4
2014-Oct-22 18:33N 52°02' E 001°10'0 0.0
2014-Oct-22 17:33N 52°02' E 001°10'0 0.0
2014-Oct-22 16:33N 52°02' E 001°10'0 0.0
2014-Oct-22 15:33N 52°02' E 001°10'0 0.0
2014-Oct-22 14:33N 52°02' E 001°10'0 0.0
2014-Oct-22 13:33N 52°02' E 001°10'0 0.0
2014-Oct-22 12:33N 52°02' E 001°10'0 0.0
2014-Oct-22 11:33N 52°02' E 001°10'0 0.0
2014-Oct-22 10:30N 52°02' E 001°10'0 0.0
2014-Oct-22 09:33N 52°02' E 001°10'0 0.0
2014-Oct-22 08:33N 52°02' E 001°10'0 0.0
2014-Oct-22 07:33N 52°02' E 001°10'0 0.0
2014-Oct-22 06:33N 52°02' E 001°10'0 0.0
2014-Oct-22 05:33N 52°02' E 001°10'0 0.0
2014-Oct-22 04:33N 52°02' E 001°10'0 0.0
2014-Oct-22 03:33N 52°02' E 001°10'0 0.0
2014-Oct-22 02:30N 52°02' E 001°10'0 0.0
2014-Oct-22 01:30N 52°02' E 001°10'0 0.0
2014-Oct-22 00:30N 52°02' E 001°10'0 0.0
2014-Oct-21 23:33N 52°02' E 001°10'0 0.0
2014-Oct-21 22:33N 52°02' E 001°10'0 0.0
2014-Oct-21 21:33N 52°02' E 001°10'0 0.0
2014-Oct-21 20:33N 52°02' E 001°10'0 0.0
2014-Oct-21 19:33N 52°02' E 001°10'0 0.0
2014-Oct-21 18:33N 52°02' E 001°10'0 0.0
2014-Oct-21 17:33N 52°02' E 001°10'0 0.0
2014-Oct-21 16:33N 52°02' E 001°10'0 0.0
2014-Oct-21 15:33N 52°02' E 001°10'0 0.0
2014-Oct-21 14:30N 52°02' E 001°10'0 0.0
2014-Oct-21 13:33N 52°02' E 001°10'0 0.0
2014-Oct-21 12:33N 52°02' E 001°10'0 0.0
2014-Oct-21 11:33N 52°02' E 001°10'0 0.0
2014-Oct-21 10:30N 52°02' E 001°10'0 0.0
2014-Oct-21 09:33N 52°02' E 001°10'0 0.0
2014-Oct-21 08:33N 52°02' E 001°10'0 0.0
2014-Oct-21 07:33N 52°02' E 001°10'0 0.0
2014-Oct-21 06:33N 52°02' E 001°10'0 0.0
2014-Oct-21 05:33N 52°02' E 001°10'0 0.0
2014-Oct-21 04:33N 52°02' E 001°10'0 0.0
2014-Oct-21 03:33N 52°02' E 001°10'0 0.0
2014-Oct-21 02:33N 52°02' E 001°10'0 0.0
2014-Oct-21 01:33N 52°02' E 001°10'0 0.0
2014-Oct-21 00:33N 52°02' E 001°10'0 0.0
2014-Oct-20 23:33N 52°02' E 001°10'0 0.0
2014-Oct-20 22:33N 52°02' E 001°10'0 0.0
2014-Oct-20 21:33N 52°02' E 001°10'0 0.0
2014-Oct-20 20:33N 52°02' E 001°10'0 0.0
2014-Oct-20 19:33N 52°02' E 001°10'0 0.0
2014-Oct-20 18:33N 52°02' E 001°10'0 0.0
2014-Oct-20 17:33N 52°02' E 001°10'0 0.0
2014-Oct-20 16:33N 52°02' E 001°10'0 0.0
2014-Oct-20 15:27N 52°02' E 001°10'0 0.0
2014-Oct-20 14:33N 52°02' E 001°10'0 0.0
2014-Oct-20 13:33N 52°02' E 001°10'0 0.0
2014-Oct-20 12:33N 52°02' E 001°10'0 0.0
2014-Oct-20 11:33N 52°02' E 001°10'0 0.0
2014-Oct-20 10:30N 52°02' E 001°10'0 0.0
2014-Oct-20 09:30N 52°02' E 001°10'0 0.0
2014-Oct-20 08:33N 52°02' E 001°10'0 0.0
2014-Oct-20 07:33N 52°02' E 001°10'0 0.0
2014-Oct-20 06:33N 52°02' E 001°10'0 0.0
2014-Oct-20 05:30N 52°02' E 001°10'0 0.0
2014-Oct-20 04:33N 52°02' E 001°10'0 0.0
2014-Oct-20 03:33N 52°02' E 001°10'0 0.0
2014-Oct-20 02:33N 52°02' E 001°10'0 0.0
2014-Oct-20 01:33N 52°02' E 001°10'0 0.0
2014-Oct-20 00:33N 52°02' E 001°10'0 0.0
2014-Oct-19 23:33N 52°02' E 001°10'0 0.0
2014-Oct-19 22:33N 52°02' E 001°10'0 0.0
2014-Oct-19 21:30N 52°02' E 001°10'0 0.0
2014-Oct-19 20:33N 52°02' E 001°10'0 0.0
2014-Oct-19 19:33N 52°02' E 001°10'0 0.0
2014-Oct-19 18:33N 52°02' E 001°10'0 0.0
2014-Oct-19 17:33N 52°02' E 001°10'0 0.0
2014-Oct-19 16:33N 52°02' E 001°10'0 0.0
2014-Oct-19 15:33N 52°02' E 001°10'0 0.0
2014-Oct-19 14:33N 52°02' E 001°10'0 0.0
2014-Oct-19 13:33N 52°02' E 001°10'0 0.0
2014-Oct-19 12:33N 52°02' E 001°10'0 0.0
2014-Oct-19 11:33N 52°02' E 001°10'0 0.0
2014-Oct-19 10:30N 52°02' E 001°10'0 0.0
2014-Oct-19 09:33N 52°02' E 001°10'0 0.0
2014-Oct-19 08:33N 52°02' E 001°10'0 0.0
2014-Oct-19 07:33N 52°02' E 001°10'0 0.0
2014-Oct-19 06:33N 52°02' E 001°10'0 0.0
2014-Oct-19 05:33N 52°02' E 001°10'0 0.0
2014-Oct-19 04:30N 52°02' E 001°10'0 0.0
2014-Oct-19 03:33N 52°02' E 001°10'0 0.0
2014-Oct-19 02:33N 52°02' E 001°10'0 0.0
2014-Oct-19 01:33N 52°02' E 001°10'0 0.0
2014-Oct-19 00:33N 52°02' E 001°10'0 0.0
2014-Oct-18 23:33N 52°02' E 001°10'0 0.0
2014-Oct-18 22:33N 52°02' E 001°10'0 0.0
2014-Oct-18 21:33N 52°02' E 001°10'0 0.0
2014-Oct-18 20:33N 52°02' E 001°10'0 0.0
2014-Oct-18 19:30N 52°02' E 001°10'0 0.0
2014-Oct-18 18:33N 52°02' E 001°10'0 0.0
2014-Oct-18 17:33N 52°02' E 001°10'0 0.1
2014-Oct-18 16:33N 52°02' E 001°09'4 4.1
2014-Oct-18 15:33N 51°60' E 001°15'8 7.9
2014-Oct-18 14:33N 51°56' E 001°26'9 8.6
2014-Oct-18 13:34N 52°02' E 001°37'3 3.1
2014-Oct-18 12:33N 52°04' E 001°40'1 0.9
2014-Oct-18 11:33N 52°05' E 001°42'2 2.4
2014-Oct-18 10:33N 52°07' E 001°41'9 8.7
2014-Oct-18 09:33N 52°15' E 001°45'9 8.9
2014-Oct-18 08:33N 52°24' E 001°51'9 8.8
2014-Oct-18 07:33N 52°32' E 001°54'9 9.3
2014-Oct-18 06:33N 52°41' E 001°55'1010.3
2014-Oct-18 05:33N 52°50' E 001°46'1111.5
2014-Oct-18 04:33N 52°58' E 001°32'1211.5
2014-Oct-18 03:33N 53°08' E 001°22'4310.7
2014-Oct-17 23:33N 53°32' E 000°24'10 9.8
2014-Oct-17 22:33N 53°33' E 000°07'1010.0
2014-Oct-17 21:33N 53°38' W 000°08'8 8.3
2014-Oct-17 20:33N 53°44' W 000°16'0 0.3
2014-Oct-17 19:30N 53°45' W 000°16'0 0.0
2014-Oct-17 18:24N 53°45' W 000°16'0 0.0
2014-Oct-17 17:30N 53°45' W 000°16'0 0.0
2014-Oct-17 16:30N 53°45' W 000°16'0 0.0
2014-Oct-17 15:18N 53°45' W 000°16'0 0.0
2014-Oct-17 14:24N 53°45' W 000°16'0 0.0
2014-Oct-17 13:09N 53°45' W 000°16'0 0.0
2014-Oct-17 12:27N 53°45' W 000°16'0 0.0
2014-Oct-17 11:27N 53°45' W 000°16'0 0.0
2014-Oct-17 10:15N 53°45' W 000°16'0 0.0
2014-Oct-17 09:33N 53°45' W 000°16'0 0.0
2014-Oct-17 08:30N 53°45' W 000°16'0 0.0
2014-Oct-17 07:27N 53°45' W 000°16'0 0.0
2014-Oct-17 06:33N 53°45' W 000°16'0 0.0
2014-Oct-17 05:33N 53°45' W 000°16'0 0.0
2014-Oct-17 04:30N 53°45' W 000°16'0 0.0
2014-Oct-17 03:30N 53°45' W 000°16'0 0.0
2014-Oct-17 02:18N 53°45' W 000°16'0 0.0
2014-Oct-17 01:30N 53°45' W 000°16'0 0.0
2014-Oct-17 00:30N 53°45' W 000°16'0 0.0
2014-Oct-16 23:30N 53°45' W 000°16'0 0.0
2014-Oct-16 22:30N 53°45' W 000°16'0 0.0
2014-Oct-16 21:30N 53°45' W 000°16'0 0.0
2014-Oct-16 20:33N 53°45' W 000°16'0 0.0
2014-Oct-16 19:33N 53°45' W 000°16'0 0.4
2014-Oct-16 18:34N 53°44' W 000°16'5 5.0
2014-Oct-16 17:33N 53°40' W 000°13'8 8.5
2014-Oct-16 16:34N 53°35' W 000°01'9 8.5
2014-Oct-16 15:34N 53°33' E 000°13'9 8.8
2014-Oct-16 14:32N 53°32' E 000°28'4 4.2
2014-Oct-16 13:31N 53°31' E 000°35'34 5.8
2014-Oct-16 07:33N 53°08' E 001°19'1110.7
2014-Oct-16 06:34N 52°60' E 001°30'1111.1
2014-Oct-16 05:33N 52°52' E 001°44'1110.4
2014-Oct-16 04:33N 52°46' E 001°58'10 9.2
2014-Oct-16 03:27N 52°37' E 002°02'8 8.7
2014-Oct-16 02:30N 52°28' E 001°59'12 8.3
2014-Oct-16 01:06N 52°17' E 001°55'5 8.3
2014-Oct-16 00:34N 52°13' E 001°53'9 8.8
2014-Oct-15 23:34N 52°04' E 001°51'10 9.7
2014-Oct-15 22:34N 51°54' E 001°48'10 9.9
2014-Oct-15 21:33N 51°45' E 001°49'1010.3
2014-Oct-15 20:34N 51°34' E 001°49'1010.4
2014-Oct-15 19:34N 51°24' E 001°45'1211.8
2014-Oct-15 18:34N 51°13' E 001°39'1010.1
2014-Oct-15 17:32N 51°03' E 001°36'4911.6
2014-Oct-15 13:19N 50°28' E 000°43'912.0
2014-Oct-15 12:34N 50°25' E 000°29'  

Dump ship's entire track history